WO5CID Weather Reports


time (UTC)temp
F
wind
direction
speed
knots
gust
knots
rain 1hr
in
rain 24hr
in
rain mn
in
humidity
%
barometer
mb
20260510145952 85 264 1.7 1.7 0.00 0.00 0.00 71 1016.6
20260510145449 83 207 0.9 0.9 0.00 0.00 0.00 72 1016.5
20260510144945 83 267 3.5 4.3 0.00 0.00 0.00 75 1016.5
20260510144442 83 263 1.7 1.7 0.00 0.00 0.00 75 1016.5
20260510143937 82 247 1.7 1.7 0.00 0.00 0.00 75 1016.6
20260510143433 82 204 0.9 0.9 0.00 0.00 0.00 75 1016.3
20260510142930 82 264 1.7 1.7 0.00 0.00 0.00 76 1016.3
20260510142427 83 239 1.7 0.9 0.00 0.00 0.00 74 1016.4
20260510141924 83 203 1.7 1.7 0.00 0.00 0.00 73 1016.5
20260510141420 82 121 0.9 1.7 0.00 0.00 0.00 77 1016.6
20260510140917 82 227 0.0 0.0 0.00 0.00 0.00 76 1016.3
20260510140413 82 200 0.0 0.0 0.00 0.00 0.00 77 1016.3
20260510135907 82 149 0.9 1.7 0.00 0.00 0.00 79 1016.1
20260510135404 81 200 1.7 1.7 0.00 0.00 0.00 79 1016.3
20260510134901 80 230 1.7 1.7 0.00 0.00 0.00 82 1016.4
20260510134357 80 206 3.5 4.3 0.00 0.00 0.00 82 1016.3
20260510133853 79 243 2.6 1.7 0.00 0.00 0.00 85 1016.3
20260510133349 78 217 0.9 0.9 0.00 0.00 0.00 85 1016.0
20260510132845 77 214 0.9 0.9 0.00 0.00 0.00 88 1016.3
20260510132338 77 236 1.7 0.9 0.00 0.00 0.00 89 1016.0
20260510131834 75 234 0.9 0.9 0.00 0.00 0.00 96 1016.2
20260510131332 75 233 0.9 0.9 0.00 0.00 0.00 98 1016.1
20260510130829 74 213 0.9 0.9 0.00 0.00 0.00 99 1016.2
20260510130326 74 216 0.9 0.9 0.00 0.00 0.00 99 1016.1
20260510125822 74 210 0.9 0.9 0.00 0.00 0.00 99 1016.1
20260510125318 73 210 0.9 0.9 0.00 0.00 0.00 99 1016.1
20260510124815 73 204 0.0 0.0 0.00 0.00 0.00 99 1016.0
20260510124312 73 204 0.9 0.9 0.00 0.00 0.00 99 1015.8
20260510123808 72 201 0.0 0.0 0.00 0.00 0.00 99 1015.5
20260510123303 72 202 0.0 0.0 0.00 0.00 0.00 99 1015.4
20260510122759 72 202 0.0 0.0 0.00 0.00 0.00 99 1015.7
20260510122255 71 202 0.0 0.0 0.00 0.00 0.00 99 1015.6
20260510121752 71 202 0.0 0.0 0.00 0.00 0.00 99 1015.7
20260510121249 71 202 0.0 0.0 0.00 0.00 0.00 99 1015.4
20260510120747 71 202 0.0 0.0 0.00 0.00 0.00 99 1015.5
20260510120243 70 192 0.0 0.0 0.00 0.00 0.00 99 1015.7
20260510115739 70 192 0.0 0.0 0.00 0.00 0.00 99 1015.3
20260510115237 70 192 0.0 0.0 0.00 0.00 0.00 99 1015.3
20260510114727 70 192 0.0 0.0 0.00 0.00 0.00 99 1015.3
20260510114224 69 192 0.0 0.0 0.00 0.00 0.00 99 1015.1
20260510113719 69 192 0.0 0.0 0.00 0.00 0.00 99 1015.1
20260510113216 69 192 0.0 0.0 0.00 0.00 0.00 99 1015.0
20260510112712 69 192 0.0 0.0 0.00 0.00 0.00 99 1014.9
20260510112209 69 192 0.0 0.0 0.00 0.00 0.00 99 1014.8
20260510111705 68 192 0.0 0.0 0.00 0.00 0.00 99 1014.7
20260510111202 68 192 0.0 0.0 0.00 0.00 0.00 99 1014.7
20260510110657 68 192 0.0 0.0 0.00 0.00 0.00 99 1014.9
20260510110155 68 187 0.0 0.0 0.00 0.00 0.00 99 1014.7
20260510105649 68 187 0.0 0.0 0.00 0.00 0.00 99 1014.7
20260510105144 68 187 0.0 0.0 0.00 0.00 0.00 99 1014.5
20260510104641 68 187 0.0 0.0 0.00 0.00 0.00 99 1014.4
20260510104138 68 187 0.0 0.0 0.00 0.00 0.00 99 1014.5
20260510103634 68 187 0.0 0.0 0.00 0.00 0.00 99 1014.1
20260510103130 68 187 0.0 0.0 0.00 0.00 0.00 99 1014.1
20260510102626 68 187 0.0 0.0 0.00 0.00 0.00 99 1014.2
20260510102122 68 187 0.0 0.0 0.00 0.00 0.00 99 1014.1
20260510101620 69 187 0.0 0.0 0.00 0.00 0.00 99 1014.1
20260510101118 69 187 0.0 0.0 0.00 0.00 0.00 99 1013.9
20260510100614 69 187 0.0 0.0 0.00 0.00 0.00 99 1013.9
20260510100111 68 187 0.0 0.0 0.00 0.00 0.00 99 1013.9
20260510095607 69 187 0.0 0.0 0.00 0.00 0.00 99 1013.8
20260510095102 69 187 0.0 0.0 0.00 0.00 0.00 99 1013.7
20260510094601 69 187 0.0 0.0 0.00 0.00 0.00 99 1013.8
20260510094057 69 187 0.0 0.0 0.00 0.00 0.00 99 1013.9
20260510093554 69 187 0.0 0.0 0.00 0.00 0.00 99 1013.7
20260510093050 69 187 0.0 0.0 0.00 0.00 0.00 99 1013.9
20260510092547 69 187 0.0 0.0 0.00 0.00 0.00 99 1013.6
20260510092047 69 187 0.0 0.0 0.00 0.00 0.00 99 1013.7
20260510091544 69 187 0.0 0.0 0.00 0.00 0.00 99 1013.5
20260510091040 69 187 0.0 0.0 0.00 0.00 0.00 99 1013.6
20260510090537 69 187 0.0 0.0 0.00 0.00 0.00 99 1013.3
20260510090032 70 187 0.0 0.0 0.00 0.00 0.00 99 1013.3
20260510085527 70 187 0.0 0.0 0.00 0.00 0.00 99 1013.3
20260510085023 70 187 0.0 0.0 0.00 0.00 0.00 99 1013.0
20260510084520 70 187 0.0 0.0 0.00 0.00 0.00 99 1013.0
20260510084017 69 187 0.0 0.0 0.00 0.00 0.00 99 1013.1
20260510083513 69 187 0.0 0.0 0.00 0.00 0.00 99 1013.0
20260510083010 69 187 0.0 0.0 0.00 0.00 0.00 99 1013.1
20260510082507 69 187 0.0 0.0 0.00 0.00 0.00 99 1013.1
20260510082007 69 187 0.0 0.0 0.00 0.00 0.00 99 1012.8
20260510081502 69 187 0.0 0.0 0.00 0.00 0.00 99 1012.9
20260510080958 69 187 0.0 0.0 0.00 0.00 0.00 99 1012.9
20260510080457 69 187 0.0 0.0 0.00 0.00 0.00 99 1013.0
20260510075954 70 187 0.0 0.0 0.00 0.00 0.00 99 1013.0
20260510075452 70 187 0.0 0.0 0.00 0.00 0.00 99 1013.0
20260510074948 70 187 0.0 0.0 0.00 0.00 0.00 99 1013.0
20260510074446 70 187 0.0 0.0 0.00 0.00 0.00 99 1012.9
20260510073942 70 187 0.0 0.0 0.00 0.00 0.00 99 1012.9
20260510073437 70 187 0.0 0.0 0.00 0.00 0.00 99 1012.8
20260510072934 70 187 0.0 0.0 0.00 0.00 0.00 99 1012.6
20260510072431 70 187 0.0 0.0 0.00 0.00 0.00 99 1012.9
20260510071926 70 186 0.0 0.0 0.00 0.00 0.00 99 1012.9
20260510071423 70 186 0.0 0.0 0.00 0.00 0.00 99 1012.8
20260510070921 70 168 0.0 0.0 0.00 0.00 0.00 99 1012.7
20260510070419 70 220 0.0 0.0 0.00 0.00 0.00 99 1012.8
20260510065914 70 214 0.0 0.0 0.00 0.00 0.00 99 1012.7
20260510065410 70 171 0.0 0.0 0.00 0.00 0.00 99 1012.7
20260510064907 70 193 0.0 0.0 0.00 0.00 0.00 99 1013.0
20260510064405 70 200 0.0 0.0 0.00 0.00 0.00 99 1013.1
20260510063901 70 185 0.0 0.0 0.00 0.00 0.00 99 1013.0
20260510063357 70 175 0.0 0.0 0.00 0.00 0.00 99 1013.0
20260510062854 70 177 0.0 0.0 0.00 0.00 0.00 99 1013.2
20260510062349 70 176 0.0 0.0 0.00 0.00 0.00 99 1013.3
20260510061845 70 163 0.9 0.9 0.00 0.00 0.00 99 1013.3
20260510061342 70 216 0.0 0.0 0.00 0.00 0.00 99 1013.6
20260510060838 70 216 0.0 0.0 0.00 0.00 0.00 99 1013.7
20260510060335 70 216 0.0 0.0 0.00 0.00 0.00 99 1013.7
20260510055832 70 216 0.0 0.0 0.00 0.00 0.00 99 1013.9
20260510055330 70 216 0.0 0.0 0.00 0.00 0.00 99 1013.8
20260510054825 70 216 0.0 0.0 0.00 0.00 0.00 99 1013.9
20260510054321 70 216 0.0 0.0 0.00 0.00 0.00 99 1013.8
20260510053815 70 216 0.0 0.0 0.00 0.00 0.00 99 1014.1
20260510053306 70 216 0.0 0.0 0.00 0.00 0.00 99 1014.1
20260510052802 70 216 0.0 0.0 0.00 0.00 0.00 99 1014.2
20260510052258 70 216 0.0 0.0 0.00 0.00 0.00 99 1014.2
20260510051754 70 217 0.0 0.0 0.00 0.00 0.00 99 1014.2
20260510051251 70 217 0.0 0.0 0.00 0.00 0.00 99 1014.3
20260510050748 70 217 0.0 0.0 0.00 0.00 0.00 98 1014.3
20260510050245 70 217 0.0 0.0 0.00 0.00 0.00 98 1014.5
20260510045742 70 217 0.0 0.0 0.00 0.00 0.00 98 1014.6
20260510045238 70 217 0.0 0.0 0.00 0.00 0.00 98 1014.4
20260510044735 70 217 0.0 0.0 0.00 0.00 0.00 98 1015.0
20260510044233 70 217 0.0 0.0 0.00 0.00 0.00 98 1014.8
20260510043728 70 217 0.0 0.0 0.00 0.00 0.00 98 1014.8
20260510043225 70 217 0.0 0.0 0.00 0.00 0.00 98 1014.6
20260510042722 70 217 0.0 0.0 0.00 0.00 0.00 98 1014.8
20260510042218 70 217 0.0 0.0 0.00 0.00 0.00 98 1014.8
20260510041715 70 217 0.0 0.0 0.00 0.00 0.00 98 1014.8
20260510041213 70 217 0.0 0.0 0.00 0.00 0.00 98 1015.1
20260510040709 70 217 0.0 0.0 0.00 0.00 0.00 98 1014.8
20260510040206 70 216 0.0 0.0 0.00 0.00 0.00 98 1014.9
20260510035701 70 216 0.0 0.0 0.00 0.09 0.09 98 1014.9
20260510035158 70 217 0.0 0.0 0.00 0.09 0.09 98 1014.7
20260510034654 70 216 0.0 0.0 0.00 0.09 0.09 98 1015.0
20260510034151 70 216 0.0 0.0 0.00 0.09 0.09 98 1015.0
20260510033647 70 217 0.0 0.0 0.00 0.09 0.09 98 1014.9
20260510033145 70 217 0.0 0.0 0.00 0.09 0.09 98 1014.7
20260510032641 70 217 0.0 0.0 0.00 0.09 0.09 98 1014.9
20260510032137 70 217 0.0 0.0 0.00 0.09 0.09 98 1015.0
20260510031632 70 217 0.0 0.0 0.00 0.09 0.09 98 1014.9
20260510031129 71 217 0.0 0.0 0.00 0.09 0.09 98 1014.9
20260510030623 71 216 0.0 0.0 0.00 0.09 0.09 98 1014.8
20260510030121 71 217 0.0 0.0 0.00 0.09 0.09 98 1014.9
20260510025618 71 217 0.0 0.0 0.00 0.09 0.09 98 1014.8
20260510025115 71 216 0.0 0.0 0.00 0.09 0.09 98 1014.8
20260510024612 71 216 0.0 0.0 0.00 0.09 0.09 98 1014.9
20260510024108 71 216 0.0 0.0 0.00 0.09 0.09 98 1014.6
20260510023604 71 216 0.0 0.0 0.00 0.09 0.09 98 1014.7
20260510023102 71 217 0.0 0.0 0.00 0.09 0.09 98 1014.7
20260510022602 71 217 0.0 0.0 0.00 0.09 0.09 98 1014.9
20260510022056 71 216 0.0 0.0 0.00 0.09 0.09 97 1014.5
20260510021553 71 217 0.0 0.0 0.00 0.09 0.09 97 1014.6
20260510021050 71 216 0.0 0.0 0.00 0.09 0.09 97 1014.2
20260510020544 71 217 0.0 0.0 0.00 0.09 0.09 97 1014.3
20260510020040 71 217 0.0 0.0 0.00 0.09 0.09 97 1014.3
20260510015536 71 216 0.0 0.0 0.00 0.09 0.09 97 1014.2
20260510015032 71 216 0.9 0.0 0.00 0.09 0.09 97 1014.0
20260510014529 71 216 0.9 0.9 0.00 0.09 0.09 97 1013.9
20260510014026 71 218 0.0 0.0 0.00 0.09 0.09 97 1014.0
20260510013520 71 190 0.0 0.0 0.00 0.09 0.09 97 1013.7
20260510013016 71 190 0.0 0.0 0.00 0.09 0.09 97 1013.7
20260510012511 71 191 0.0 0.0 0.00 0.09 0.09 97 1013.9
20260510012007 71 190 0.0 0.0 0.00 0.09 0.09 97 1013.6
20260510011501 71 190 0.0 0.0 0.00 0.09 0.09 96 1013.1
20260510010957 71 190 0.9 0.9 0.00 0.09 0.09 96 1013.2
20260510010455 71 190 0.0 0.0 0.00 0.09 0.09 96 1013.4
20260510005951 71 190 0.0 0.0 0.00 0.09 0.09 96 1013.7
20260510005447 71 190 0.0 0.0 0.00 0.09 0.09 96 1013.2
20260510004945 71 190 0.9 0.9 0.00 0.09 0.09 96 1013.2
20260510004442 72 191 0.0 0.0 0.00 0.09 0.09 96 1013.3
20260510003940 72 169 0.0 0.0 0.00 0.09 0.09 96 1013.1
20260510003437 72 169 0.0 0.0 0.00 0.09 0.09 95 1013.0
20260510002937 72 169 0.0 0.0 0.00 0.09 0.09 95 1013.0
20260510002433 72 169 0.0 0.0 0.00 0.09 0.09 95 1013.2
20260510001929 72 200 0.9 0.9 0.00 0.09 0.09 95 1013.4
20260510001427 72 200 0.0 0.0 0.00 0.09 0.09 94 1013.7
20260510000925 72 222 0.9 0.9 0.00 0.09 0.09 94 1013.4
20260510000421 73 195 0.0 0.0 0.00 0.09 0.09 94 1013.2
20260509235917 73 196 0.0 0.0 0.00 0.09 0.09 94 1013.4
20260509235414 73 196 0.0 0.0 0.00 0.09 0.09 94 1013.5
20260509234910 73 194 0.0 0.0 0.00 0.09 0.09 94 1013.4
20260509234408 73 223 0.0 0.0 0.00 0.09 0.09 93 1013.4
20260509233906 73 219 0.9 0.9 0.00 0.09 0.09 93 1013.3
20260509233403 73 217 0.0 0.0 0.00 0.09 0.09 93 1013.2
20260509232858 73 218 0.0 0.0 0.00 0.09 0.09 93 1013.5
20260509232356 74 27 0.0 0.0 0.00 0.09 0.09 93 1013.4
20260509231852 74 191 0.9 0.0 0.00 0.09 0.09 92 1013.1
20260509231349 74 237 0.0 0.0 0.00 0.09 0.09 92 1013.3
20260509230842 74 220 0.0 0.0 0.00 0.09 0.09 92 1013.3
20260509230338 74 235 0.9 0.9 0.00 0.09 0.09 91 1013.3
20260509225833 74 233 0.0 0.0 0.00 0.09 0.09 91 1013.3
20260509225331 75 201 0.9 0.9 0.00 0.09 0.09 92 1013.1
20260509224827 75 229 0.9 0.9 0.00 0.09 0.09 92 1013.1
20260509224322 75 240 0.0 0.0 0.00 0.09 0.09 92 1012.9
20260509223819 75 240 0.9 0.9 0.00 0.09 0.09 91 1013.0
20260509223316 75 198 0.0 0.0 0.00 0.09 0.09 92 1012.9
20260509222812 75 196 0.9 0.9 0.00 0.09 0.09 91 1012.9
20260509222306 76 197 0.0 0.0 0.00 0.09 0.09 90 1012.9
20260509221758 76 221 0.9 0.9 0.00 0.09 0.09 90 1012.8
20260509221256 76 219 0.0 0.0 0.00 0.09 0.09 91 1012.8
20260509220751 76 251 0.0 0.0 0.00 0.09 0.09 91 1012.8
20260509220248 76 254 0.9 0.9 0.00 0.09 0.09 90 1012.7
20260509215743 76 208 0.0 0.0 0.00 0.09 0.09 91 1012.8
20260509215239 76 209 0.0 0.0 0.00 0.09 0.09 91 1012.9
20260509214736 77 212 0.0 0.0 0.00 0.09 0.09 90 1012.8
20260509214234 77 211 0.0 0.0 0.00 0.09 0.09 91 1012.8
20260509213730 77 224 0.0 0.0 0.00 0.09 0.09 89 1012.9
20260509213226 77 195 0.0 0.0 0.00 0.09 0.09 89 1012.7
20260509212723 77 195 0.0 0.0 0.00 0.09 0.09 90 1012.9
20260509212220 77 195 0.9 0.9 0.00 0.09 0.09 91 1012.7
20260509211716 77 194 0.0 0.0 0.00 0.09 0.09 91 1012.5
20260509211213 77 184 0.9 0.9 0.00 0.09 0.09 91 1012.6
20260509210709 77 217 0.0 0.0 0.00 0.09 0.09 93 1012.6
20260509210207 77 217 0.0 0.0 0.00 0.09 0.09 92 1012.5
20260509205702 77 218 0.0 0.0 0.00 0.09 0.09 92 1012.7
20260509205201 76 219 0.0 0.0 0.00 0.09 0.09 92 1012.7
20260509204658 76 222 0.9 0.9 0.00 0.09 0.09 92 1012.6
20260509204154 76 215 0.0 0.0 0.00 0.09 0.09 92 1012.7
20260509203650 77 215 0.9 0.9 0.00 0.09 0.09 91 1012.5
20260509203149 77 215 0.9 0.9 0.00 0.09 0.09 92 1012.6
20260509202643 77 215 0.0 0.0 0.00 0.09 0.09 92 1012.5
20260509202139 77 215 0.0 0.0 0.00 0.09 0.09 90 1012.6
20260509201634 77 215 0.0 0.0 0.00 0.09 0.09 91 1012.5
20260509201131 77 216 0.0 0.0 0.00 0.09 0.09 91 1012.8
20260509200626 77 185 0.9 0.9 0.00 0.09 0.09 91 1012.7
20260509200117 76 185 0.0 0.0 0.00 0.09 0.09 92 1012.5
20260509195613 76 186 0.0 0.0 0.00 0.09 0.09 94 1012.7
20260509195108 75 186 0.9 0.9 0.00 0.09 0.09 94 1012.6
20260509194607 75 200 0.0 0.0 0.00 0.09 0.09 94 1012.6
20260509194105 74 203 0.9 0.9 0.00 0.09 0.09 94 1012.5
20260509193601 74 176 0.9 0.9 0.00 0.09 0.09 93 1012.8
20260509193057 74 198 0.0 0.0 0.42 0.09 0.09 92 1012.8
20260509192554 75 270 1.7 1.7 0.54 0.09 0.09 90 1012.8
20260509192048 77 231 2.6 2.6 0.17 0.03 0.03 88 1013.1
20260509191543 79 212 0.9 0.9 0.00 0.00 0.00 83 1012.8
20260509191039 80 208 0.0 0.0 0.00 0.00 0.00 82 1012.5
20260509190536 80 208 0.0 0.0 0.00 0.00 0.00 77 1012.5
20260509190034 81 208 0.0 0.0 0.00 0.00 0.00 79 1012.5
20260509185531 82 208 0.0 0.0 0.00 0.00 0.00 74 1012.5
20260509185027 83 208 0.0 0.0 0.00 0.00 0.00 70 1012.1
20260509184526 83 208 0.0 0.0 0.00 0.00 0.00 72 1012.3
20260509184022 83 208 0.0 0.0 0.00 0.00 0.00 71 1012.2
20260509183517 83 208 0.0 0.0 0.00 0.00 0.00 71 1012.2
20260509183013 83 214 0.0 0.0 0.00 0.00 0.00 69 1012.4
20260509182510 84 180 0.9 0.9 0.00 0.00 0.00 68 1012.5
20260509182007 84 223 0.9 0.9 0.00 0.00 0.00 68 1012.5
20260509181505 85 212 0.0 0.0 0.00 0.00 0.00 68 1012.7
20260509181002 84 211 0.0 0.0 0.00 0.00 0.00 70 1012.7
20260509180457 84 214 0.0 0.0 0.00 0.00 0.00 70 1012.7
20260509175955 84 219 1.7 0.9 0.00 0.00 0.00 66 1012.8
20260509175451 84 223 0.0 0.0 0.00 0.00 0.00 68 1013.0
20260509174947 83 222 1.7 0.9 0.00 0.00 0.00 69 1012.9
20260509174444 83 229 0.9 0.9 0.00 0.00 0.00 70 1013.2
20260509173938 83 235 1.7 1.7 0.00 0.00 0.00 73 1013.1
20260509173433 82 240 2.6 1.7 0.00 0.00 0.00 70 1013.4
20260509172930 82 207 1.7 1.7 0.00 0.00 0.00 72 1013.4
20260509172427 82 208 1.7 1.7 0.00 0.00 0.00 72 1013.3
20260509171923 82 220 0.9 0.9 0.00 0.00 0.00 72 1013.2
20260509171419 82 269 1.7 1.7 0.00 0.00 0.00 73 1013.4
20260509170915 82 253 1.7 1.7 0.00 0.00 0.00 74 1013.4
20260509170410 82 210 0.9 0.9 0.00 0.00 0.00 73 1013.4
20260509165906 82 190 0.0 0.9 0.00 0.00 0.00 71 1013.3
20260509165401 82 210 0.9 0.9 0.00 0.00 0.00 74 1013.4
20260509164857 82 201 0.9 0.9 0.00 0.00 0.00 72 1013.6
20260509164352 81 232 0.0 0.0 0.00 0.00 0.00 75 1013.5
20260509163849 81 289 1.7 1.7 0.00 0.00 0.00 73 1013.5
20260509163346 81 221 1.7 1.7 0.00 0.00 0.00 74 1013.6
20260509162839 81 168 0.0 0.0 0.00 0.00 0.00 74 1013.6
20260509162332 81 202 0.9 0.9 0.00 0.00 0.00 76 1013.5
20260509161829 81 207 1.7 1.7 0.00 0.00 0.00 78 1013.9
20260509161325 81 190 0.0 0.0 0.00 0.00 0.00 77 1013.6
20260509160821 81 193 0.0 0.0 0.00 0.00 0.00 79 1013.4
20260509160317 81 206 0.0 0.0 0.00 0.00 0.00 78 1013.4
20260509155812 80 236 0.9 0.9 0.00 0.00 0.00 80 1013.4
20260509155309 80 236 0.9 0.9 0.00 0.00 0.00 79 1013.4
20260509154805 79 229 1.7 1.7 0.00 0.00 0.00 81 1013.3
20260509154302 79 231 0.9 0.9 0.00 0.00 0.00 81 1013.4
20260509153759 79 185 0.9 0.9 0.00 0.00 0.00 82 1013.4
20260509153255 78 154 0.9 0.9 0.00 0.00 0.00 82 1013.5
20260509152752 78 179 0.0 0.9 0.00 0.00 0.00 84 1013.5
20260509152248 77 179 0.0 0.9 0.00 0.00 0.00 85 1013.3
20260509151745 77 178 0.9 0.9 0.00 0.00 0.00 84 1013.5
20260509151242 77 165 1.7 1.7 0.00 0.00 0.00 85 1013.4
20260509150740 76 175 0.9 0.9 0.00 0.00 0.00 86 1013.2
20260509150238 76 239 2.6 2.6 0.00 0.00 0.00 86 1013.4